Location: Albuquerque Trailhead
(34.7934°N, 106.3736°W)
Time: 03:57:58
(UTC+00:00)

Delta 128 - Pass Details

Date: 20 June 2021
Orbit: 608 x 1216 km, 28.0° (Epoch: 29 July)

Event Time Altitude Azimuth Distance (km) Brightness Sun altitude
Rises 02:59:30 0° 259° (W) 2,899 7.7 -7.4°
Reaches altitude 10° 03:02:02 10° 250° (WSW) 1,960 6.6 -7.8°
Maximum altitude 03:06:02 32° 186° (S) 1,034 4.5 -8.4°
Enters shadow 03:09:44 12° 125° (SE) 1,856 5.3 -9.0°
